"Pseudo-MPEC" for P10O88S

Created 2019 Jun 16 22:07:33 UT using Find_Orb

Click here for an explanation of pseudo-MPECs

 
 Astrometry: 
     P10O88S  C2019 04 26.30422 14 24 58.18 -16 40 10.2    ~63C7 19.4 GVNEOCPG96
     P10O88S  C2019 04 26.30929 14 24 57.96 -16 40 09.3    ~63C7 19.2 GVNEOCPG96
     P10O88S  C2019 04 26.31436 14 24 57.62 -16 40 07.7    ~63C7 20.0 GVNEOCPG96
     P10O88S  C2019 04 26.31946 14 24 57.32 -16 40 06.6    ~63C7 19.8 GVNEOCPG96
     P10O88S  C2019 05 274p@5ZUO$.p+e_S.M(.B-*(:KR/alw1/=CM)G[-F9`Tfh_dIiF=:GF51
     P10O88S  C2019 05 27I#bTNKrNnEXo2'Kc[Astrometry7+xPJ!?ps3qBjZ8Ebc=61H'vZF51
     P10O88S  C2019 05 27]#+9w,kMVlG?ZxbK2ptg0redacted;)]303mH7SH**Tclicku1dAF51
     P10O88S  C2019 05 31XkamC#UWhOu/9%FLiYt7JM:T1HOBgq!X2nU5f0l.9B=,!=Yjv-\GF52
     P10O88S  C2019 05 31Zv!kx+gehw46RIbod!7'.8xA]uN?vbow-m(hereN3^=0L-forcO0F52
     P10O88S  C2019 05 31%Et[6ViOTdf)l_%.explanationTWo!9Chx:y$HbT2gS,HikrK/^F52

Station data:
(F51) Pan-STARRS 1, Haleakala  (N20.707235 W156.255910)  US/Hawaii.
   Observers N. Primak, A. Schultz, S. Watters, J. Thiel, T. Goggia. Measurer
   PS1 Science Consortium. 1.8-m Ritchey-Chrétien + CCD.
(F52) Pan-STARRS 2, Haleakala  (N20.707384 W156.255910)  US/Hawaii. 1.8-m
   Ritchey-Chrétien + CCD.
(G96) Mt. Lemmon Survey  (N32.442754 W110.788720)  US/Arizona.  Observers T.
   A. Pruyne, B. M. Africano, E. J. Christensen, G. A. Farneth, D. C. Fuls,
   A. R. Gibbs, A. D. Grauer, H. Groeller, J. A. Johnson, R. A. Kowalski, S.
   M. Larson, G. J. Leonard, R. L. Seaman, F. C. Shelly. 1.5-m reflector +
   10K CCD.

Orbital elements:  P10O88S
   Perihelion 2019 Oct 28.522562 +/- 0.846 TT = 12:32:29 (JD 2458785.022562)
Epoch 2019 May 31.0 TT = JDT 2458634.5   Earth MOID: 0.5114   Ju: 0.0852
M 350.40737422 +/- 0.18             Sa: 0.0208                AutoNEOCP
n   0.06372882 +/- 0.000859         Peri.   39.50279 +/- 0.18
a   6.20743407 +/- 0.0558           Node   265.13153 +/- 0.055
e   0.7541043 +/- 0.00253           Incl.    1.79832 +/- 0.0036
P  15.47                   H 18.1   G  0.15   U  8.0  
q 1.52638115 +/- 0.00201    Q 10.8884870 +/- 0.116
From 10 observations 2019 Apr. 26-May 31; mean residual 0".26
Residuals in arcseconds: 
190426 G96  .10+  .21+    190527 F51  .09+  .01-    190531 F52  .02+  .18+    
190426 G96  .80+  .19-    190527 F51  .07+  .09+    190531 F52  .06+  .02-    
190426 G96  .23-  .10+    190527 F51  .16-  .08-    
190426 G96  .66-  .12-    190531 F52  .08-  .16-    

Ephemerides (geocentric):
Date (UTC) HH   RA              Dec         delta   r     elong  mag " sig PA
---- -- -- --  -------------   -----------  ------ ------ -----  --- ---- ---
2019 06 16 22  13 50 31.091   -12 56 25.05  1.4183 2.1675 125.0 21.6 10.9  95
2019 06 16 23  13 50 30.900   -12 56 20.65  1.4184 2.1672 125.0 21.6 11.0  95
2019 06 17 00  13 50 30.713   -12 56 16.26  1.4185 2.1669 125.0 21.6 11.0  95
2019 06 17 01  13 50 30.530   -12 56 11.89  1.4186 2.1666 124.9 21.6 11.1  96
2019 06 17 02  13 50 30.350   -12 56 07.54  1.4187 2.1662 124.9 21.6 11.1  96
2019 06 17 03  13 50 30.173   -12 56 03.21  1.4187 2.1659 124.8 21.6 11.2  96
2019 06 17 04  13 50 29.999   -12 55 58.90  1.4188 2.1656 124.8 21.7 11.2  96
2019 06 17 05  13 50 29.830   -12 55 54.60  1.4189 2.1653 124.8 21.7 11.3  96
2019 06 17 06  13 50 29.663   -12 55 50.33  1.4190 2.1650 124.7 21.7 11.3  96
2019 06 17 07  13 50 29.500   -12 55 46.07  1.4190 2.1647 124.7 21.7 11.4  96
2019 06 17 08  13 50 29.341   -12 55 41.83  1.4191 2.1644 124.6 21.7 11.5  96
2019 06 17 09  13 50 29.184   -12 55 37.61  1.4192 2.1641 124.6 21.7 11.5  96
2019 06 17 10  13 50 29.032   -12 55 33.40  1.4193 2.1637 124.5 21.7 11.6  96
2019 06 17 11  13 50 28.882   -12 55 29.22  1.4194 2.1634 124.5 21.7 11.6  96
2019 06 17 12  13 50 28.737   -12 55 25.05  1.4194 2.1631 124.5 21.7 11.7  96
2019 06 17 13  13 50 28.594   -12 55 20.90  1.4195 2.1628 124.4 21.7 11.7  96
2019 06 17 14  13 50 28.455   -12 55 16.78  1.4196 2.1625 124.4 21.7 11.8  96
2019 06 17 15  13 50 28.320   -12 55 12.66  1.4197 2.1622 124.3 21.7 11.9  96
2019 06 17 16  13 50 28.188   -12 55 08.57  1.4198 2.1619 124.3 21.7 11.9  96
2019 06 17 17  13 50 28.059   -12 55 04.50  1.4198 2.1615 124.3 21.7 12.0  96
2019 06 17 18  13 50 27.934   -12 55 00.44  1.4199 2.1612 124.2 21.7 12.0  96
2019 06 17 19  13 50 27.812   -12 54 56.40  1.4200 2.1609 124.2 21.7 12.1  96
2019 06 17 20  13 50 27.694   -12 54 52.38  1.4201 2.1606 124.1 21.7 12.1  96
2019 06 17 21  13 50 27.579   -12 54 48.38  1.4202 2.1603 124.1 21.7 12.2  96
2019 06 17 22  13 50 27.468   -12 54 44.40  1.4203 2.1600 124.1 21.7 12.3  96
2019 06 17 23  13 50 27.360   -12 54 40.43  1.4203 2.1597 124.0 21.7 12.3  96
2019 06 18 00  13 50 27.255   -12 54 36.49  1.4204 2.1594 124.0 21.7 12.4  96
2019 06 18 01  13 50 27.154   -12 54 32.56  1.4205 2.1590 123.9 21.7 12.4  96
2019 06 18 02  13 50 27.056   -12 54 28.65  1.4206 2.1587 123.9 21.7 12.5  96
2019 06 18 03  13 50 26.962   -12 54 24.76  1.4207 2.1584 123.9 21.7 12.5  96
2019 06 18 04  13 50 26.871   -12 54 20.89  1.4208 2.1581 123.8 21.7 12.6  96
2019 06 18 05  13 50 26.784   -12 54 17.03  1.4208 2.1578 123.8 21.7 12.7  96
2019 06 18 06  13 50 26.700   -12 54 13.20  1.4209 2.1575 123.7 21.7 12.7  96
2019 06 18 07  13 50 26.620   -12 54 09.38  1.4210 2.1572 123.7 21.7 12.8  96
2019 06 18 08  13 50 26.543   -12 54 05.58  1.4211 2.1568 123.7 21.7 12.8  96
2019 06 18 09  13 50 26.470   -12 54 01.80  1.4212 2.1565 123.6 21.7 12.9  96
2019 06 18 10  13 50 26.400   -12 53 58.04  1.4213 2.1562 123.6 21.7 13.0  97
2019 06 18 11  13 50 26.333   -12 53 54.29  1.4213 2.1559 123.5 21.7 13.0  97
2019 06 18 12  13 50 26.270   -12 53 50.57  1.4214 2.1556 123.5 21.7 13.1  97
2019 06 18 13  13 50 26.210   -12 53 46.86  1.4215 2.1553 123.5 21.7 13.1  97
2019 06 18 14  13 50 26.154   -12 53 43.18  1.4216 2.1550 123.4 21.7 13.2  97
2019 06 18 15  13 50 26.101   -12 53 39.51  1.4217 2.1547 123.4 21.7 13.3  97
2019 06 18 16  13 50 26.052   -12 53 35.86  1.4218 2.1543 123.3 21.7 13.3  97
2019 06 18 17  13 50 26.006   -12 53 32.22  1.4218 2.1540 123.3 21.7 13.4  97
2019 06 18 18  13 50 25.964   -12 53 28.61  1.4219 2.1537 123.3 21.7 13.4  97
2019 06 18 19  13 50 25.925   -12 53 25.01  1.4220 2.1534 123.2 21.7 13.5  97
2019 06 18 20  13 50 25.890   -12 53 21.44  1.4221 2.1531 123.2 21.7 13.6  97
2019 06 18 21  13 50 25.858   -12 53 17.88  1.4222 2.1528 123.1 21.7 13.6  97